Hyalite Weather Station

This weather station provides temperature, wind speed, gust or max wind speed, and wind direction at 9982ft near the summit of Flanders Mountain. This data can be used with temperature and precipitation data from the Shower Falls SNOTEL site. If the data has not been updated recently you can view it directly on datagarrison.com

Elevation
9982ft
Jump to table bottom
Date Time Temperature
deg F
RH, % Wind Speed Wind Gust Wind Direction
03/01/24 03:00 19.8 81 14 40 SW - 226
03/01/24 02:00 20.2 82 20 48 SW - 234
03/01/24 01:00 22.1 75 29 58 SW - 233
03/01/24 00:00 22.1 80 28 61 SW - 225
02/29/24 23:00 21.1 81 27 48 SW - 227
02/29/24 22:00 21.0 81 29 60 SW - 225
02/29/24 21:00 20.4 81 27 49 SW - 219
02/29/24 20:00 20.8 79 30 57 SW - 229
02/29/24 19:00 21.4 77 42 65 SW - 227
02/29/24 18:00 21.8 76 42 61 SW - 229
02/29/24 17:00 22.9 74 35 67 SW - 230
02/29/24 16:00 22.9 75 34 59 SW - 229
02/29/24 15:00 23.1 76 29 48 SW - 219
02/29/24 14:00 22.2 79 31 48 SW - 225
02/29/24 13:00 24.1 75 26 43 SW - 216
02/29/24 12:00 22.6 76 28 41 SW - 225
02/29/24 11:00 22.0 76 38 61 SW - 236
02/29/24 10:00 22.1 76 42 62 SW - 232
02/29/24 09:00 21.0 75 41 59 SW - 232
02/29/24 08:00 21.0 74 40 55 SW - 232
02/29/24 07:00 19.8 79 43 60 SW - 229
02/29/24 06:00 19.5 76 43 62 SW - 229
02/29/24 05:00 19.8 80 41 63 SW - 232
02/29/24 04:00 18.2 78 34 54 SW - 234
02/29/24 03:00 19.2 79 37 52 SW - 233
02/29/24 02:00 19.8 77 35 47 SW - 237
02/29/24 01:00 20.6 75 34 48 SW - 243
02/29/24 00:00 19.8 80 29 43 SW - 243
02/28/24 23:00 20.2 79 28 45 SW - 244
02/28/24 22:00 18.7 80 24 37 SW - 240
02/28/24 21:00 18.0 81 26 38 SW - 241
02/28/24 20:00 17.1 81 28 42 SW - 241
02/28/24 19:00 17.8 80 30 43 SW - 244
02/28/24 18:00 18.1 80 27 40 SW - 244
02/28/24 17:00 18.0 79 25 37 W - 248
02/28/24 16:00 19.8 74 25 41 SW - 247
02/28/24 15:00 19.1 77 28 41 SW - 244
02/28/24 14:00 18.1 80 27 41 SW - 241
02/28/24 13:00 16.6 80 28 44 SW - 244
02/28/24 12:00 16.0 81 29 43 SW - 244
02/28/24 11:00 14.9 81 26 41 SW - 240
02/28/24 10:00 13.1 81 23 39 SW - 241
02/28/24 09:00 13.7 80 29 39 SW - 246
02/28/24 08:00 11.6 80 31 43 W - 251
02/28/24 07:00 10.1 81 28 42 W - 248
02/28/24 06:00 5.8 83 22 34 SW - 246
02/28/24 05:00 5.3 82 22 36 W - 250
02/28/24 04:00 3.9 81 23 36 W - 248
02/28/24 03:00 2.8 80 29 45 W - 251
02/28/24 02:00 1.4 79 24 41 W - 250